Regional Weather Roundup
Issued by NWS Northern Indiana

Home | Current Version | Previous Version | Text Only | Print | Product List | Glossary Off
Versions: 1 2 3 4 5 6 7 8 9 10 11 12 13 14 15 16 17 18 19 20 21 22 23 24 25 26 27 28 29 30 31 32 33 34 35 36 37 38 39 40 41 42 43 44 45 46 47 48 49 50

000
ASUS43 KIWX 240300
RWRIWX

KIWX WEATHER ROUNDUP
NATIONAL WEATHER SERVICE NORTHERN INDIANA
1100 PM EDT SAT JUL 23 2016

NOTE: "FAIR" INDICATES FEW OR NO CLOUDS BELOW 12,000 FEET WITH NO
SIGNIFICANT WEATHER AND/OR OBSTRUCTIONS TO VISIBILITY.

* THESE STATIONS ARE NOT UNDER NWS QUALITY CONTROL. THEY ALSO MAY NOT
  REPORT WEATHER SUCH AS PRECIPITATION OR FOG.

INZ001>027-240400-
NORTHERN INDIANA

CITY           SKY/WX    TMP DP  RH WIND       PRES   REMARKS
GARY*          CLOUDY    75 N/A N/A SE9       29.95F
KNOX*          CLOUDY    73  64  73 NE5       29.98S
SOUTH BEND     LGT RAIN  74  74 100 E8        29.96F
MONTICELLO*    MOCLDY    81  75  82 CALM      29.98S
ANGOLA*          N/A     77  72  83 CALM      30.00S
FORT WAYNE     MOCLDY    77  75  93 SW5       30.00R
PERU/GRISSOM   MOCLDY    80  77  89 SW2       29.99R

$$
INZ028>050-240400-
CENTRAL INDIANA

CITY           SKY/WX    TMP DP  RH WIND       PRES   REMARKS
LAFAYETTE      PTCLDY    78  77  96 CALM      29.98R
KOKOMO*        PTCLDY    81  72  74 CALM      30.00S
MUNCIE*        PTCLDY    78  73  84 CALM      30.02R
INDIANAPOLIS   PTCLDY    83  72  69 CALM      30.00R

$$
MIZ043>046-050>051-056>058-064>065-071>073-077>080-240400-
SOUTHWEST LOWER MICHIGAN

CITY           SKY/WX    TMP DP  RH WIND       PRES   REMARKS
BATTLE CREEK   CLOUDY    77  67  71 SW7       30.00R
BENTON HARBOR  LGT RAIN  76  73  91 E15       29.91F FOG
COLDWATER*     MOCLDY    75  72  88 CALM      30.00S
HOLLAND        LGT RAIN  76  71  85 S8        29.95F
GRAND RAPIDS   CLOUDY    82  71  69 W3        29.97R
KALAMAZOO      LGT RAIN  80  68  66 SW6       29.99R
STURGIS*       CLOUDY    76  72  87 CALM      29.99S
THREE RIVERS*  FAIR      79  72  77 CALM      30.00R

$$
OHZ001>008-015>018-024>025-240400-
NORTHWEST OHIO

CITY           SKY/WX    TMP DP  RH WIND       PRES   REMARKS
DEFIANCE       MOCLDY    78  71  79 S5        29.99R
FINDLAY        PTCLDY    77  71  82 S5        29.99R
TOLEDO EXPRESS MOCLDY    76  73  91 CALM      29.98R
TOLEDO METCALF CLOUDY    81  68  64 SE5       29.99R
LIMA           CLOUDY    79  74  84 CALM      30.01R

$$
AND FOR LAKE MICHIGAN COASTAL AND OPEN LAKE BUOY OBSERVATIONS

STATION/POSITION TEMP    WIND        PRES    VSBY  WAVE
                 AIR SEA DIR/SP/G                  HT/PER
                 (F)     (DEG/KT/KT) (MB)    (MI)  (FT/S)
CALUMET HARBOR    74                   N/A
MICHIGAN CITY     73      70/ 17/ 19   N/A
BURNS HARBOR      73      90/ 14/ 21 1015.2S
SAINT JOSEPH      79     310/  1/  8 1015.9R
SOUTH LAKE BUOY   76 75  120/ 12/ 14 1012.0          0
4 MI NW BRIDGMAN  75 78  230/  8/ 12 1014.9R         1
MICHIGAN CITY     74 74  100/ 12/ 21   N/A           4/ 4

$$
&&




USA.gov is the U.S. government's official web portal to all federal, state and local government web resources and services.